Weather History for KCPK - July, 2014

Change the Weather History Date:

Friday, July 4, 2014

  Actual Average (KORF) Record (KORF)
Temperature  
Mean Temperature 76 °F 79 °F  
Max Temperature 86 °F 87 °F 98 °F (1997)
Min Temperature 66 °F 71 °F 59 °F (1892)
Degree Days  
Heating Degree Days 0 0  
Month to date heating degree days 0  
Since 1 June heating degree days 6  
Since 1 July heating degree days 0  
Cooling Degree Days 11 14  
Month to date cooling degree days 56  
Year to date cooling degree days 537  
Since 1 June cooling degree days 371  
Growing Degree Days 26 (Base 50)    
Moisture  
Dew Point 66 °F    
Average Humidity 71    
Maximum Humidity 100    
Minimum Humidity 39    
Precipitation  
Precipitation 0.34 in 0.14 in 2.73 in (1981)
Month to date precipitation 0.57  
Year to date precipitation 21.85  
Snow  
Snow 0.00 in 0.00 in 0.00 in (2002)
Month to date snowfall 0.0  
Since 1 July snowfall 0.0  
Snow Depth -    
Sea Level Pressure  
Sea Level Pressure 29.92 in    
Wind  
Wind Speed 12 mph (NW)    
Max Wind Speed 23 mph    
Max Gust Speed 37 mph    
Visibility 9 miles    
Events Rain , Thunderstorm    
T = Trace of Precipitation, MM = Missing Value Source: NWS Daily Summary

Daily Weather History Graph

Daily Weather History Graph

Search for Another Location

Airport or City:

Trip Planner

Search our weather history database for the weather conditions in past years. The results will help you decide how hot, cold, wet, or windy it might be!

Date:

Astronomy

Jul. 04, 2014 Rise Set
Actual Time 5:51 AM EDT 8:27 PM EDT
Civil Twilight 5:21 AM EDT 8:57 PM EDT
Nautical Twilight 4:43 AM EDT 9:35 PM EDT
Astronomical Twilight 4:01 AM EDT 10:17 PM EDT
Moon 12:34 PM EDT (7/4) No Moon Set
Length of Visible Light 15h 36m
Length of Day
14h 35m
Waxing Crescent, 42% of the Moon is Illuminated
Jul 4
Waxing Crescent
Jul 5
First Quarter
Jul 12
Full
Jul 18
Last Quarter
Jul 26
New

Hourly Weather History & Observations

Time (EDT) Temp. Heat Index Dew Point Humidity Pressure Visibility Wind Dir Wind Speed Gust Speed Precip Events Conditions
12:15 AM 80.6 °F 86.2 °F 75.2 °F 84% 29.85 in 7.0 mi NE 15.0 mph 19.6 mph N/A   Overcast
12:35 AM 78.8 °F - 75.2 °F 89% 29.84 in 4.0 mi ENE 12.7 mph 21.9 mph 0.16 in Rain Heavy Rain
12:55 AM 78.8 °F - 77.0 °F 94% 29.82 in 7.0 mi ENE 11.5 mph - N/A   Overcast
1:15 AM 78.8 °F - 75.2 °F 89% 29.80 in 5.0 mi NE 13.8 mph 20.7 mph N/A Thunderstorm Mostly Cloudy
1:35 AM 78.8 °F - 75.2 °F 89% 29.79 in 7.0 mi NE 10.4 mph 17.3 mph 0.02 in Rain Light Rain
1:55 AM 78.8 °F - 75.2 °F 89% 29.77 in 7.0 mi NE 15.0 mph 21.9 mph N/A   Mostly Cloudy
2:15 AM 75.2 °F - 73.4 °F 94% 29.76 in 10.0 mi NE 10.4 mph 23.0 mph 0.02 in Rain Light Rain
2:35 AM 75.2 °F - 73.4 °F 94% 29.76 in 7.0 mi ENE 16.1 mph 36.8 mph 0.05 in Rain , Thunderstorm Rain
2:55 AM 73.4 °F - 71.6 °F 94% 29.74 in 10.0 mi NE 13.8 mph 23.0 mph 0.03 in Rain Light Rain
3:15 AM 73.4 °F - 71.6 °F 94% 29.73 in 10.0 mi NNE 13.8 mph 18.4 mph 0.07 in Rain Rain
3:35 AM 73.4 °F - 71.6 °F 94% 29.71 in 10.0 mi North 10.4 mph 18.4 mph 0.12 in Rain Rain
3:55 AM 73.4 °F - 71.6 °F 94% 29.68 in 10.0 mi North 12.7 mph 19.6 mph N/A Rain Light Rain
4:15 AM 73.4 °F - 71.6 °F 94% 29.66 in 10.0 mi North 12.7 mph 23.0 mph 0.01 in Rain Light Rain
4:35 AM 73.4 °F - 71.6 °F 94% 29.66 in 10.0 mi North 11.5 mph 21.9 mph 0.02 in Rain Light Rain
5:00 AM 73.4 °F - 71.6 °F 94% 29.66 in - NNW 12.7 mph 18.4 mph N/A   Unknown
5:15 AM 73.4 °F - 71.6 °F 94% 29.67 in 7.0 mi NW 15.0 mph 23.0 mph N/A Rain Light Rain
5:35 AM 73.4 °F - 71.6 °F 94% 29.68 in 10.0 mi NW 17.3 mph 26.5 mph 0.03 in Rain Rain
5:55 AM 73.4 °F - 71.6 °F 94% 29.70 in 7.0 mi NW 16.1 mph 20.7 mph 0.01 in Rain Heavy Rain
6:15 AM 73.4 °F - 71.6 °F 94% 29.71 in 10.0 mi NW 13.8 mph 20.7 mph 0.02 in   Drizzle
6:35 AM 73.4 °F - 73.4 °F 100% 29.72 in 10.0 mi NW 12.7 mph 24.2 mph 0.02 in   Overcast
6:55 AM 73.4 °F - 71.6 °F 94% 29.74 in 10.0 mi NW 18.4 mph 25.3 mph N/A Rain Light Rain
7:15 AM 73.4 °F - 71.6 °F 94% 29.76 in 10.0 mi NW 20.7 mph 26.5 mph 0.03 in Rain Rain
7:35 AM 73.4 °F - 71.6 °F 94% 29.77 in 10.0 mi NW 23.0 mph 35.7 mph 0.04 in Rain Light Rain
7:55 AM 73.4 °F - 71.6 °F 94% 29.80 in 10.0 mi NW 15.0 mph 32.2 mph N/A Rain Light Rain
8:15 AM 73.4 °F - 71.6 °F 94% 29.82 in 4.0 mi WNW 13.8 mph 24.2 mph 0.02 in Rain Rain
8:35 AM 71.6 °F - 71.6 °F 100% 29.84 in 10.0 mi WNW 18.4 mph 27.6 mph 0.04 in Rain Light Rain
8:55 AM 71.6 °F - 69.8 °F 94% 29.86 in 10.0 mi WNW 11.5 mph 28.8 mph N/A Rain Light Rain
9:15 AM 71.6 °F - 69.8 °F 94% 29.87 in 10.0 mi NW 11.5 mph 24.2 mph N/A   Light Drizzle
9:35 AM 71.6 °F - 69.8 °F 94% 29.88 in 10.0 mi NW 11.5 mph 26.5 mph N/A Rain Light Rain
9:55 AM 73.4 °F - 69.8 °F 88% 29.89 in 10.0 mi WNW 16.1 mph 25.3 mph N/A Rain Light Rain
10:15 AM 75.2 °F - 69.8 °F 83% 29.90 in 10.0 mi NW 15.0 mph 20.7 mph N/A   Overcast
10:35 AM 77.0 °F - 68.0 °F 74% 29.92 in 10.0 mi NW 15.0 mph 25.3 mph N/A   Mostly Cloudy
10:55 AM 77.0 °F - 68.0 °F 74% 29.94 in 10.0 mi WNW 15.0 mph 23.0 mph N/A   Overcast
11:15 AM 78.8 °F - 68.0 °F 69% 29.95 in 10.0 mi NW 15.0 mph 23.0 mph N/A   Mostly Cloudy
11:35 AM 78.8 °F - 66.2 °F 65% 29.96 in 10.0 mi WNW 19.6 mph 26.5 mph N/A   Scattered Clouds
12:15 PM 80.6 °F 82.7 °F 66.2 °F 61% 29.98 in 10.0 mi WNW 13.8 mph 25.3 mph N/A   Scattered Clouds
12:35 PM 80.6 °F 82.3 °F 64.4 °F 58% 29.99 in 10.0 mi NW 15.0 mph 23.0 mph N/A   Clear
12:55 PM 82.4 °F 83.9 °F 64.4 °F 54% 29.98 in 10.0 mi NW 15.0 mph 24.2 mph N/A   Clear
1:15 PM 82.4 °F 83.4 °F 62.6 °F 51% 29.99 in 10.0 mi NW 13.8 mph 21.9 mph N/A   Clear
1:35 PM 82.4 °F 83.4 °F 62.6 °F 51% 29.99 in 10.0 mi NW 15.0 mph 18.4 mph N/A   Clear
1:55 PM 84.2 °F 85.6 °F 64.4 °F 51% 29.99 in 10.0 mi NW 5.8 mph - N/A   Clear
2:15 PM 84.2 °F 85.0 °F 62.6 °F 48% 29.99 in 7.0 mi WNW 11.5 mph 19.6 mph N/A   Clear
2:35 PM 84.2 °F 85.0 °F 62.6 °F 48% 30.00 in 7.0 mi WNW 10.4 mph - N/A   Scattered Clouds
2:55 PM 84.2 °F 85.0 °F 62.6 °F 48% 30.01 in 10.0 mi West 11.5 mph 18.4 mph N/A   Clear
3:15 PM 84.2 °F 84.4 °F 60.8 °F 45% 30.01 in 10.0 mi NNW 9.2 mph - N/A   Scattered Clouds
3:35 PM 84.2 °F 85.0 °F 62.6 °F 48% 30.01 in 10.0 mi WNW 15.0 mph - N/A   Scattered Clouds
3:55 PM 86.0 °F 86.1 °F 60.8 °F 43% 30.02 in 10.0 mi WNW 12.7 mph - N/A   Scattered Clouds
4:15 PM 84.2 °F 84.4 °F 60.8 °F 45% 30.03 in 10.0 mi WNW 6.9 mph - N/A   Mostly Cloudy
4:35 PM 86.0 °F 86.1 °F 60.8 °F 43% 30.03 in 10.0 mi WNW 10.4 mph - N/A   Scattered Clouds
4:55 PM 84.2 °F 84.4 °F 60.8 °F 45% 30.04 in 10.0 mi West 8.1 mph - N/A   Mostly Cloudy
5:15 PM 84.2 °F 83.5 °F 57.2 °F 40% 30.04 in 10.0 mi WNW 10.4 mph - N/A   Mostly Cloudy
5:35 PM 84.2 °F 83.8 °F 59.0 °F 42% 30.04 in 10.0 mi WNW 8.1 mph - N/A   Scattered Clouds
5:55 PM 84.2 °F 83.5 °F 57.2 °F 40% 30.04 in 10.0 mi NW 10.4 mph - N/A   Clear
6:15 PM 84.2 °F 83.5 °F 57.2 °F 40% 30.04 in 7.0 mi WNW 6.9 mph - N/A   Clear
6:35 PM 84.2 °F 83.8 °F 59.0 °F 42% 30.05 in 10.0 mi WNW 6.9 mph - N/A   Clear
6:55 PM 82.4 °F 82.0 °F 57.2 °F 42% 30.06 in 10.0 mi NW 8.1 mph - N/A   Clear
7:15 PM 82.4 °F 81.7 °F 55.4 °F 39% 30.07 in 10.0 mi NW 6.9 mph - N/A   Clear
7:35 PM 80.6 °F 80.5 °F 55.4 °F 42% 30.08 in 7.0 mi NW 5.8 mph - N/A   Clear
7:55 PM 80.6 °F 80.8 °F 57.2 °F 45% 30.09 in 10.0 mi Calm Calm - N/A   Clear
8:15 PM 78.8 °F - 57.2 °F 47% 30.10 in 10.0 mi Calm Calm - N/A   Clear
8:35 PM 75.2 °F - 57.2 °F 53% 30.11 in 10.0 mi Calm Calm - N/A   Clear
8:55 PM 75.2 °F - 57.2 °F 53% 30.11 in 10.0 mi Calm Calm - N/A   Clear
9:15 PM 69.8 °F - 62.6 °F 78% 30.12 in 10.0 mi Calm Calm - N/A   Clear
9:35 PM 66.2 °F - 60.8 °F 83% 30.13 in 10.0 mi Calm Calm - N/A   Clear
9:55 PM 66.2 °F - 60.8 °F 83% 30.13 in 10.0 mi Calm Calm - N/A   Clear
10:15 PM 66.2 °F - 60.8 °F 83% 30.14 in 10.0 mi Calm Calm - N/A   Clear
10:35 PM 66.2 °F - 60.8 °F 83% 30.15 in 10.0 mi Calm Calm - N/A   Clear
11:15 PM 71.6 °F - 55.4 °F 57% 30.16 in 10.0 mi NNW 3.5 mph - N/A   Clear
11:35 PM 73.4 °F - 53.6 °F 50% 30.16 in 10.0 mi Calm Calm - N/A   Clear
11:55 PM 73.4 °F - 53.6 °F 50% 30.17 in 10.0 mi Calm Calm - N/A   Clear